When you browse on this site, cookies collect data to enhance your experience and personalize the content and advertising you see.
Visit our Privacy Policy to learn more. By continuing to use the site, you agree to this use of cookies and data.
  • In Austria
  • List of Countries
  • For 7 days
  • Water Temperature
  • Satellite Maps
  • Weather Map
  • News
  • Weather Widgets
  • user-avatar
    Login

    Hourly Weather Gomel

    Today, 18 January, Friday

    Time Temperature Precipitation Wind Pressure Humidity
    00:00 -1°C° 0 mm 5 mps 741 mmHg 95%
    01:00 -1°C° 0 mm 5 mps 742 mmHg 95%
    02:00 -1°C° 0 mm 4 mps 742 mmHg 97%
    03:00 -1°C° 0 mm 4 mps 742 mmHg 96%
    04:00 -1°C° 0 mm 4 mps 742 mmHg 96%
    05:00 -1°C° 0 mm 4 mps 742 mmHg 96%
    06:00 -1°C° 0 mm 4 mps 742 mmHg 95%
    07:00 -2°C° 0 mm 5 mps 742 mmHg 95%
    08:00 -2°C° 0 mm 5 mps 742 mmHg 94%
    09:00 -2°C° 0 mm 5 mps 742 mmHg 94%
    10:00 -2°C° 0 mm 5 mps 742 mmHg 95%
    11:00 -1°C° 0 mm 5 mps 742 mmHg 95%
    12:00 -1°C° 0.1 mm 5 mps 742 mmHg 96%
    13:00 -1°C° 0.1 mm 5 mps 742 mmHg 98%
    14:00 -1°C° 0 mm 4 mps 741 mmHg 99%
    15:00 -1°C° 0.1 mm 4 mps 742 mmHg 99%
    16:00 -1°C° 0.1 mm 5 mps 742 mmHg 98%
    17:00 -1°C° 0.1 mm 5 mps 742 mmHg 97%
    18:00 -1°C° 0 mm 5 mps 743 mmHg 94%
    19:00 -2°C° 0 mm 5 mps 743 mmHg 91%
    20:00 -2°C° 0 mm 5 mps 744 mmHg 88%
    21:00 -5°C° 0 mm 5 mps 744 mmHg 89%
    22:00 -5°C° 0 mm 4 mps 745 mmHg 89%
    23:00 -8°C° 0 mm 4 mps 746 mmHg 90%

    Tomorrow, 19 January, Saturday

    Time Temperature Precipitation Wind Pressure Humidity
    00:00 -9°C° 0 mm 4 mps 747 mmHg 91%
    01:00 -9°C° 0 mm 3 mps 747 mmHg 92%
    02:00 -10°C° 0 mm 3 mps 748 mmHg 92%
    03:00 -10°C° 0 mm 3 mps 748 mmHg 93%
    04:00 -12°C° 0 mm 3 mps 749 mmHg 93%
    05:00 -12°C° 0 mm 3 mps 749 mmHg 94%
    06:00 -10°C° 0 mm 3 mps 750 mmHg 94%
    07:00 -10°C° 0 mm 3 mps 750 mmHg 95%
    08:00 -10°C° 0 mm 3 mps 750 mmHg 95%
    09:00 -9°C° 0 mm 4 mps 751 mmHg 94%
    10:00 -8°C° 0 mm 4 mps 751 mmHg 93%
    11:00 -7°C° 0 mm 5 mps 751 mmHg 93%
    12:00 -7°C° 0 mm 5 mps 751 mmHg 91%
    13:00 -6°C° 0 mm 5 mps 751 mmHg 90%
    14:00 -5°C° 0 mm 4 mps 752 mmHg 89%
    15:00 -5°C° 0 mm 4 mps 752 mmHg 89%
    16:00 -7°C° 0 mm 4 mps 752 mmHg 90%
    17:00 -6°C° 0 mm 3 mps 753 mmHg 91%
    18:00 -6°C° 0 mm 3 mps 753 mmHg 92%
    19:00 -6°C° 0 mm 3 mps 753 mmHg 92%
    20:00 -5°C° 0 mm 2 mps 753 mmHg 93%
    21:00 -6°C° 0 mm 3 mps 754 mmHg 94%
    22:00 -7°C° 0 mm 3 mps 754 mmHg 94%
    23:00 -7°C° 0 mm 3 mps 754 mmHg 94%

    Day after tomorrow, 20 January, Sunday

    Time Temperature Precipitation Wind Pressure Humidity
    00:00 -8°C° 0 mm 3 mps 754 mmHg 95%
    01:00 -9°C° 0 mm 3 mps 754 mmHg 95%
    02:00 -10°C° 0 mm 3 mps 754 mmHg 95%
    03:00 -10°C° 0 mm 3 mps 754 mmHg 96%
    04:00 -10°C° 0 mm 3 mps 754 mmHg 96%
    05:00 -10°C° 0 mm 3 mps 754 mmHg 97%
    06:00 -10°C° 0 mm 3 mps 754 mmHg 96%
    07:00 -10°C° 0 mm 3 mps 754 mmHg 96%
    08:00 -10°C° 0 mm 3 mps 754 mmHg 96%
    09:00 -10°C° 0 mm 4 mps 753 mmHg 95%
    10:00 -9°C° 0 mm 4 mps 753 mmHg 93%
    11:00 -9°C° 0 mm 4 mps 753 mmHg 92%
    12:00 -8°C° 0 mm 4 mps 753 mmHg 91%
    13:00 -8°C° 0 mm 4 mps 752 mmHg 90%
    14:00 -7°C° 0 mm 4 mps 752 mmHg 88%
    15:00 -9°C° 0 mm 4 mps 752 mmHg 89%
    16:00 -10°C° 0 mm 4 mps 751 mmHg 90%
    17:00 -10°C° 0 mm 3 mps 751 mmHg 90%
    18:00 -10°C° 0 mm 3 mps 751 mmHg 90%
    19:00 -12°C° 0 mm 3 mps 751 mmHg 90%
    20:00 -12°C° 0 mm 3 mps 751 mmHg 90%
    21:00 -12°C° 0 mm 3 mps 750 mmHg 91%
    22:00 -12°C° 0 mm 3 mps 750 mmHg 91%
    23:00 -13°C° 0 mm 3 mps 750 mmHg 92%

    21 January, Monday

    Time Temperature Precipitation Wind Pressure Humidity
    00:00 -13°C° 0 mm 3 mps 750 mmHg 93%
    01:00 -13°C° 0 mm 3 mps 750 mmHg 93%
    02:00 -13°C° 0 mm 3 mps 750 mmHg 93%
    03:00 -12°C° 0.1 mm 3 mps 750 mmHg 94%
    04:00 -10°C° 0.1 mm 3 mps 750 mmHg 94%
    05:00 -8°C° 0.1 mm 3 mps 750 mmHg 95%
    06:00 -9°C° 0 mm 3 mps 751 mmHg 95%
    07:00 -10°C° 0 mm 3 mps 751 mmHg 95%
    08:00 -10°C° 0 mm 3 mps 752 mmHg 95%
    09:00 -10°C° 0 mm 3 mps 752 mmHg 93%
    10:00 -10°C° 0 mm 3 mps 752 mmHg 92%
    11:00 -9°C° 0 mm 3 mps 753 mmHg 90%
    12:00 -9°C° 0 mm 3 mps 753 mmHg 90%
    13:00 -8°C° 0 mm 3 mps 753 mmHg 90%
    14:00 -8°C° 0 mm 3 mps 753 mmHg 90%
    15:00 -9°C° 0 mm 3 mps 753 mmHg 91%
    16:00 -9°C° 0 mm 2 mps 753 mmHg 91%
    17:00 -12°C° 0 mm 2 mps 754 mmHg 92%
    18:00 -12°C° 0 mm 2 mps 754 mmHg 92%
    19:00 -13°C° 0 mm 2 mps 754 mmHg 92%
    20:00 -13°C° 0 mm 2 mps 754 mmHg 92%
    21:00 -13°C° 0 mm 2 mps 754 mmHg 92%
    22:00 -14°C° 0 mm 2 mps 754 mmHg 92%
    23:00 -14°C° 0 mm 2 mps 755 mmHg 92%

    22 January, Tuesday

    Time Temperature Precipitation Wind Pressure Humidity
    00:00 -14°C° 0 mm 2 mps 754 mmHg 92%
    01:00 -14°C° 0 mm 2 mps 754 mmHg 92%
    02:00 -13°C° 0 mm 2 mps 754 mmHg 91%
    03:00 -14°C° 0 mm 3 mps 754 mmHg 91%
    04:00 -13°C° 0 mm 3 mps 753 mmHg 90%
    05:00 -13°C° 0 mm 3 mps 753 mmHg 90%
    06:00 -12°C° 0 mm 4 mps 753 mmHg 89%
    07:00 -12°C° 0 mm 4 mps 753 mmHg 88%
    08:00 -12°C° 0 mm 4 mps 752 mmHg 87%
    09:00 -11°C° 0 mm 4 mps 752 mmHg 87%
    10:00 -11°C° 0 mm 5 mps 752 mmHg 87%
    11:00 -11°C° 0 mm 5 mps 752 mmHg 87%
    12:00 -10°C° 0.1 mm 5 mps 752 mmHg 87%
    13:00 -10°C° 0.1 mm 5 mps 752 mmHg 88%
    14:00 -10°C° 0.1 mm 5 mps 751 mmHg 88%
    15:00 -9°C° 0.1 mm 4 mps 751 mmHg 88%
    16:00 -10°C° 0.1 mm 4 mps 751 mmHg 88%
    17:00 -11°C° 0.1 mm 4 mps 751 mmHg 89%
    18:00 -10°C° 0 mm 3 mps 751 mmHg 89%
    19:00 -12°C° 0 mm 3 mps 751 mmHg 90%
    20:00 -12°C° 0 mm 3 mps 751 mmHg 91%
    21:00 -13°C° 0 mm 3 mps 751 mmHg 91%
    22:00 -14°C° 0 mm 3 mps 751 mmHg 91%
    23:00 -13°C° 0 mm 2 mps 751 mmHg 92%

    23 January, Wednesday

    Time Temperature Precipitation Wind Pressure Humidity
    00:00 -14°C° 0 mm 2 mps 751 mmHg 92%
    01:00 -14°C° 0 mm 2 mps 751 mmHg 92%
    02:00 -15°C° 0 mm 2 mps 751 mmHg 92%
    03:00 -15°C° 0 mm 2 mps 751 mmHg 92%
    04:00 -16°C° 0 mm 2 mps 751 mmHg 92%
    05:00 -16°C° 0 mm 2 mps 751 mmHg 92%
    06:00 -16°C° 0 mm 2 mps 751 mmHg 92%
    07:00 -17°C° 0 mm 2 mps 751 mmHg 92%
    08:00 -18°C° 0 mm 3 mps 751 mmHg 91%
    09:00 -17°C° 0 mm 3 mps 751 mmHg 90%
    10:00 -15°C° 0 mm 3 mps 751 mmHg 89%
    11:00 -14°C° 0 mm 3 mps 751 mmHg 88%
    12:00 -14°C° 0 mm 4 mps 751 mmHg 89%
    13:00 -14°C° 0 mm 4 mps 751 mmHg 89%
    14:00 -12°C° 0 mm 4 mps 750 mmHg 89%
    15:00 -14°C° 0 mm 4 mps 750 mmHg 90%
    16:00 -15°C° 0 mm 4 mps 750 mmHg 91%
    17:00 -15°C° 0 mm 4 mps 750 mmHg 92%
    18:00 -16°C° 0 mm 4 mps 750 mmHg 90%
    19:00 -16°C° 0 mm 4 mps 750 mmHg 89%
    20:00 -16°C° 0 mm 4 mps 750 mmHg 87%
    21:00 -17°C° 0 mm 4 mps 750 mmHg 85%
    22:00 -17°C° 0 mm 4 mps 750 mmHg 84%
    23:00 -17°C° 0 mm 4 mps 750 mmHg 82%
    Show more